FW4132 Weather Reports


time (UTC)temp
C
wind
direction
speed
KPH
gust
KPH
rain 1hr
cm
rain 24hr
cm
rain mn
cm
humidity
%
barometer
mb
20260509190056 14 320 4.8 14.5 0.00 0.00 0.00 51 1023.1
20260509190021 13 320 1.6 14.5 0.00 0.00 0.00 50 1021.5
20260509185814 14 248 6.4 12.9 0.00 0.00 0.00 49 1023.1
20260509185508 13 269 4.8 12.9 0.00 0.00 0.00 49 1021.6
20260509185043 13 345 4.8 12.9 0.00 0.00 0.00 51 1023.1
20260509185007 13 258 4.8 12.9 0.00 0.00 0.00 51 1021.6
20260509184541 13 283 4.8 11.3 0.00 0.00 0.00 51 1023.1
20260509184525 13 243 4.8 12.9 0.00 0.00 0.00 50 1021.6
20260509184006 13 257 3.2 12.9 0.00 0.00 0.00 49 1021.5
20260509183540 14 296 4.8 16.1 0.00 0.00 0.00 50 1023.0
20260509183510 13 289 1.6 16.1 0.00 0.00 0.00 49 1021.4
20260509183301 14 319 6.4 16.1 0.00 0.00 0.00 50 1023.0
20260509183023 13 314 4.8 16.1 0.00 0.00 0.00 49 1021.4
20260509182540 14 273 4.8 11.3 0.00 0.00 0.00 50 1022.9
20260509182504 13 267 3.2 9.7 0.00 0.00 0.00 50 1021.3
20260509182040 13 271 4.8 12.9 0.00 0.00 0.00 50 1022.9
20260509182007 13 271 3.2 12.9 0.00 0.00 0.00 50 1021.4
20260509181540 14 323 4.8 12.9 0.00 0.00 0.00 50 1022.9
20260509181527 13 280 6.4 12.9 0.00 0.00 0.00 50 1021.4
20260509181041 13 225 4.8 11.3 0.00 0.00 0.00 51 1022.8
20260509181013 13 225 4.8 11.3 0.00 0.00 0.00 50 1021.3
20260509180540 13 234 4.8 11.3 0.00 0.00 0.00 52 1022.8
20260509180510 13 300 3.2 11.3 0.00 0.00 0.00 52 1021.3
20260509180040 13 306 4.8 12.9 0.00 0.00 0.00 51 1022.7
20260509180029 13 318 3.2 12.9 0.00 0.00 0.00 51 1021.2
20260509175536 13 264 4.8 12.9 0.00 0.00 0.00 51 1022.5
20260509175510 13 317 6.4 12.9 0.00 0.00 0.00 50 1021.1
20260509175036 13 311 3.2 8.0 0.00 0.00 0.00 52 1022.5
20260509175009 13 280 3.2 8.0 0.00 0.00 0.00 52 1021.1
20260509174536 13 306 4.8 9.7 0.00 0.00 0.00 53 1022.5
20260509174517 12 306 1.6 9.7 0.00 0.00 0.00 51 1021.1
20260509174035 13 290 4.8 9.7 0.00 0.00 0.00 51 1022.4
20260509174010 12 286 4.8 9.7 0.00 0.00 0.00 51 1021.2
20260509173536 13 279 3.2 9.7 0.00 0.00 0.00 53 1022.7
20260509173504 12 263 1.6 9.7 0.00 0.00 0.00 52 1021.1
20260509173036 12 313 3.2 11.3 0.00 0.00 0.00 53 1022.7
20260509173021 12 301 0.0 11.3 0.00 0.00 0.00 52 1021.2
20260509172536 12 283 3.2 11.3 0.00 0.00 0.00 54 1022.8
20260509172507 12 284 1.6 11.3 0.00 0.00 0.00 53 1021.3
20260509172035 12 342 4.8 12.9 0.00 0.00 0.00 54 1022.8
20260509172009 11 342 3.2 12.9 0.00 0.00 0.00 54 1021.3
20260509171536 11 311 3.2 12.9 0.00 0.00 0.00 54 1021.3
20260509171035 11 313 3.2 11.3 0.00 0.00 0.00 54 1022.9
20260509171008 11 306 3.2 11.3 0.00 0.00 0.00 54 1021.4
20260509170536 11 276 4.8 11.3 0.00 0.00 0.00 55 1022.9
20260509170512 11 277 1.6 11.3 0.00 0.00 0.00 54 1021.5
20260509170036 11 242 4.8 11.3 0.00 0.00 0.00 55 1023.0
20260509170030 11 269 4.8 11.3 0.00 0.00 0.00 54 1021.5
20260509165536 11 246 4.8 11.3 0.00 0.00 0.00 55 1023.1
20260509165505 11 240 4.8 9.7 0.00 0.00 0.00 54 1021.5
20260509165036 11 313 3.2 9.7 0.00 0.00 0.00 56 1023.2
20260509165007 11 287 3.2 9.7 0.00 0.00 0.00 55 1021.6
20260509164536 11 317 3.2 9.7 0.00 0.00 0.00 55 1023.1
20260509164527 11 310 1.6 8.0 0.00 0.00 0.00 55 1021.6
20260509164036 11 283 3.2 11.3 0.00 0.00 0.00 57 1023.0
20260509164011 10 283 3.2 11.3 0.00 0.00 0.00 56 1021.6
20260509163533 11 300 3.2 11.3 0.00 0.00 0.00 56 1023.0
20260509163507 10 301 3.2 11.3 0.00 0.00 0.00 56 1021.5
20260509163300 11 281 3.2 9.7 0.00 0.00 0.00 57 1022.8
20260509163027 10 292 3.2 9.7 0.00 0.00 0.00 57 1021.4
20260509162527 11 319 4.8 9.7 0.00 0.00 0.00 56 1022.8
20260509162508 10 319 1.6 9.7 0.00 0.00 0.00 56 1021.3
20260509162020 11 310 3.2 9.7 0.00 0.00 0.00 56 1022.7
20260509162008 10 300 3.2 9.7 0.00 0.00 0.00 56 1021.3
20260509161529 10 292 3.2 8.0 0.00 0.00 0.00 57 1021.3
20260509161516 10 292 3.2 8.0 0.00 0.00 0.00 57 1022.7
20260509161236 10 294 4.8 9.7 0.00 0.00 0.00 58 1022.5
20260509161008 10 284 3.2 9.7 0.00 0.00 0.00 58 1021.2
20260509160511 10 319 3.2 9.7 0.00 0.00 0.00 58 1021.1
20260509160508 10 319 3.2 9.7 0.00 0.00 0.00 58 1022.4
20260509160230 10 311 3.2 11.3 0.00 0.00 0.00 58 1022.3
20260509160024 10 304 1.6 11.3 0.00 0.00 0.00 58 1021.1
20260509155509 10 275 4.8 11.3 0.00 0.00 0.00 58 1022.5
20260509155011 10 306 4.8 9.7 0.00 0.00 0.00 57 1021.0
20260509155008 10 306 4.8 9.7 0.00 0.00 0.00 58 1022.7
20260509154508 10 313 3.2 8.0 0.00 0.00 0.00 59 1022.5
20260509154504 10 313 3.2 8.0 0.00 0.00 0.00 58 1020.9
20260509154008 10 303 3.2 6.4 0.00 0.00 0.00 58 1022.4
20260509154004 9 303 1.6 6.4 0.00 0.00 0.00 58 1020.8
20260509153508 10 304 3.2 6.4 0.00 0.00 0.00 57 1022.4
20260509153503 9 304 3.2 6.4 0.00 0.00 0.00 57 1020.9
20260509153012 9 275 1.6 6.4 0.00 0.00 0.00 57 1020.8
20260509153008 10 275 3.2 6.4 0.00 0.00 0.00 57 1022.3
20260509152505 9 292 3.2 6.4 0.00 0.00 0.00 59 1022.4
20260509152503 9 292 3.2 6.4 0.00 0.00 0.00 58 1020.8
20260509152003 8 105 0.0 9.7 0.00 0.00 0.00 59 1020.9
20260509151505 8 105 3.2 9.7 0.00 0.00 0.00 61 1022.3
20260509151005 8 103 0.0 9.7 0.00 0.00 0.00 62 1022.3
20260509151002 8 105 4.8 9.7 0.00 0.00 0.00 62 1020.7
20260509150505 8 257 0.0 3.2 0.00 0.00 0.00 61 1022.3
20260509150503 8 257 0.0 3.2 0.00 0.00 0.00 60 1020.7
20260509150006 8 257 1.6 4.8 0.00 0.00 0.00 60 1022.3
20260509150003 7 257 0.0 4.8 0.00 0.00 0.00 60 1020.8
20260509145505 7 255 1.6 4.8 0.00 0.00 0.00 61 1020.8
20260509145503 7 255 1.6 4.8 0.00 0.00 0.00 61 1022.2
20260509145222 7 233 0.0 4.8 0.00 0.00 0.00 61 1022.1
20260509145003 7 233 0.0 4.8 0.00 0.00 0.00 61 1020.7
20260509144506 7 283 0.0 4.8 0.00 0.00 0.00 61 1020.7
20260509144457 7 283 0.0 4.8 0.00 0.00 0.00 61 1022.0
20260509144002 7 279 0.0 3.2 0.00 0.00 0.00 61 1020.6
20260509143951 7 279 1.6 3.2 0.00 0.00 0.00 62 1022.0
20260509143507 7 281 1.6 4.8 0.00 0.00 0.00 61 1020.6
20260509143446 7 281 1.6 4.8 0.00 0.00 0.00 63 1022.0
20260509143006 6 310 0.0 6.4 0.00 0.00 0.00 63 1020.5
20260509142939 7 310 1.6 6.4 0.00 0.00 0.00 64 1021.9
20260509142505 6 311 1.6 6.4 0.00 0.00 0.00 64 1020.4
20260509142433 6 323 1.6 6.4 0.00 0.00 0.00 65 1021.9
20260509142004 6 248 1.6 6.4 0.00 0.00 0.00 65 1020.4
20260509141927 6 252 0.0 6.4 0.00 0.00 0.00 65 1021.9
20260509141513 5 311 0.0 4.8 0.00 0.00 0.00 70 1020.4
20260509141425 6 311 1.6 4.8 0.00 0.00 0.00 70 1021.9
20260509141004 5 311 0.0 6.4 0.00 0.00 0.00 68 1020.3
20260509140911 5 311 1.6 6.4 0.00 0.00 0.00 70 1021.7
20260509140505 5 311 0.0 6.4 0.00 0.00 0.00 71 1020.2
20260509140405 5 311 3.2 6.4 0.00 0.00 0.00 72 1021.7
20260509140122 3 292 1.6 4.8 0.00 0.00 0.00 77 1021.5
20260509140004 3 293 1.6 4.8 0.00 0.00 0.00 76 1020.2
20260509135503 3 312 1.6 4.8 0.00 0.00 0.00 79 1020.1
20260509135353 3 275 1.6 4.8 0.00 0.00 0.00 79 1021.5
20260509135109 2 275 0.0 4.8 0.00 0.00 0.00 82 1021.5
20260509135002 2 275 0.0 4.8 0.00 0.00 0.00 81 1020.1
20260509134603 2 274 0.0 4.8 0.00 0.00 0.00 82 1021.5
20260509134508 2 274 0.0 4.8 0.00 0.00 0.00 82 1020.2
20260509134003 2 200 0.0 0.0 0.00 0.00 0.00 83 1020.2
20260509133835 2 170 0.0 0.0 0.00 0.00 0.00 83 1021.5
20260509133503 1 170 0.0 0.0 0.00 0.00 0.00 82 1020.1
20260509133330 2 101 0.0 0.0 0.00 0.00 0.00 82 1021.4
20260509133010 1 101 0.0 1.6 0.00 0.00 0.00 82 1020.1
20260509132823 1 101 0.0 1.6 0.00 0.00 0.00 83 1021.4
20260509132503 1 101 0.0 3.2 0.00 0.00 0.00 81 1020.1
20260509132317 1 101 0.0 3.2 0.00 0.00 0.00 83 1021.5
20260509132002 1 101 0.0 3.2 0.00 0.00 0.00 81 1020.1
20260509131811 1 101 0.0 3.2 0.00 0.00 0.00 81 1021.3
20260509131517 1 101 0.0 6.4 0.00 0.00 0.00 82 1019.9
20260509131304 1 101 1.6 9.7 0.00 0.00 0.00 82 1021.3
20260509131007 1 101 0.0 9.7 0.00 0.00 0.00 81 1019.8
20260509130759 1 101 1.6 9.7 0.00 0.00 0.00 84 1021.2
20260509130505 1 107 4.8 9.7 0.00 0.00 0.00 82 1019.8
20260509130253 1 98 1.6 4.8 0.00 0.00 0.00 80 1021.2
20260509130012 1 265 1.6 4.8 0.00 0.00 0.00 80 1021.2
20260509130007 1 265 0.0 4.8 0.00 0.00 0.00 80 1019.8
20260509125509 1 264 0.0 4.8 0.00 0.00 0.00 79 1019.8
20260509125242 1 264 0.0 4.8 0.00 0.00 0.00 79 1021.3
20260509125005 1 264 0.0 4.8 0.00 0.00 0.00 79 1019.8
20260509124735 1 271 0.0 1.6 0.00 0.00 0.00 79 1021.2
20260509124506 1 271 0.0 4.8 0.00 0.00 0.00 79 1019.6
20260509124450 1 271 1.6 4.8 0.00 0.00 0.00 80 1021.2
20260509124003 1 271 0.0 4.8 0.00 0.00 0.00 78 1019.9
20260509123723 1 271 1.6 4.8 0.00 0.00 0.00 79 1021.3
20260509123502 1 265 1.6 4.8 0.00 0.00 0.00 78 1019.9
20260509123217 1 265 0.0 4.8 0.00 0.00 0.00 77 1021.3
20260509123010 1 265 0.0 4.8 0.00 0.00 0.00 76 1019.9
20260509122937 1 287 0.0 0.0 0.00 0.00 0.00 76 1021.2
20260509122503 1 287 0.0 0.0 0.00 0.00 0.00 75 1019.9
20260509122205 1 287 0.0 0.0 0.00 0.00 0.00 75 1021.2
20260509122003 1 287 0.0 0.0 0.00 0.00 0.00 75 1019.9
20260509121659 1 286 0.0 0.0 0.00 0.00 0.00 75 1021.1
20260509121523 1 286 0.0 0.0 0.00 0.00 0.00 75 1019.9
20260509121419 1 286 0.0 0.0 0.00 0.00 0.00 74 1021.1
20260509121004 1 286 0.0 0.0 0.00 0.00 0.00 74 1019.8
20260509120646 2 286 0.0 0.0 0.00 0.00 0.00 74 1021.1
20260509120505 1 286 0.0 0.0 0.00 0.00 0.00 73 1019.9
20260509120141 2 286 0.0 0.0 0.00 0.00 0.00 75 1021.1
20260509120018 1 286 0.0 0.0 0.00 0.00 0.00 73 1019.9
20260509115635 2 286 0.0 0.0 0.00 0.00 0.00 74 1021.1
20260509115506 2 286 0.0 0.0 0.00 0.00 0.00 73 1019.9
20260509115129 2 286 0.0 0.0 0.00 0.00 0.00 73 1021.1
20260509115004 2 286 0.0 0.0 0.00 0.00 0.00 73 1019.8
20260509114623 2 286 0.0 0.0 0.00 0.00 0.00 74 1021.2
20260509114516 2 286 0.0 0.0 0.00 0.00 0.00 73 1019.9
20260509114117 2 286 0.0 0.0 0.00 0.00 0.00 74 1021.2
20260509114007 2 286 0.0 0.0 0.00 0.00 0.00 73 1019.9
20260509113611 2 286 0.0 0.0 0.00 0.00 0.00 73 1021.2
20260509113509 2 286 0.0 0.0 0.00 0.00 0.00 72 1019.9
20260509113106 2 285 0.0 0.0 0.00 0.00 0.00 73 1021.3
20260509113013 2 286 0.0 0.0 0.00 0.00 0.00 73 1020.1
20260509112600 2 285 0.0 0.0 0.00 0.00 0.00 73 1021.3
20260509112505 2 285 0.0 0.0 0.00 0.00 0.00 73 1020.0
20260509112054 2 285 0.0 3.2 0.00 0.00 0.00 73 1021.2
20260509112002 2 285 0.0 3.2 0.00 0.00 0.00 73 1019.9
20260509111547 2 285 0.0 3.2 0.00 0.00 0.00 73 1021.2
20260509111510 2 285 0.0 4.8 0.00 0.00 0.00 72 1019.9
20260509111043 2 286 0.0 4.8 0.00 0.00 0.00 72 1021.2
20260509111004 2 285 0.0 4.8 0.00 0.00 0.00 72 1019.9
20260509110535 3 286 1.6 4.8 0.00 0.00 0.00 72 1021.2
20260509110503 2 286 0.0 4.8 0.00 0.00 0.00 71 1019.8
20260509110029 3 300 1.6 4.8 0.00 0.00 0.00 72 1021.1
20260509110013 2 300 0.0 4.8 0.00 0.00 0.00 71 1019.8
20260509105747 3 300 0.0 4.8 0.00 0.00 0.00 71 1021.2
20260509105504 2 300 0.0 4.8 0.00 0.00 0.00 70 1019.8
20260509105017 3 300 0.0 4.8 0.00 0.00 0.00 71 1021.1
20260509105008 3 300 0.0 4.8 0.00 0.00 0.00 70 1019.8
20260509104229 3 301 0.0 4.8 0.00 0.00 0.00 69 1020.9
20260509104006 3 301 0.0 4.8 0.00 0.00 0.00 69 1019.5
20260509103504 3 301 0.0 3.2 0.00 0.00 0.00 68 1019.6
20260509103500 3 301 0.0 3.2 0.00 0.00 0.00 69 1020.9
20260509103022 3 302 0.0 3.2 0.00 0.00 0.00 68 1019.5
20260509102954 3 302 0.0 3.2 0.00 0.00 0.00 69 1020.9
20260509102506 3 302 0.0 1.6 0.00 0.00 0.00 68 1019.4
20260509102447 3 302 0.0 0.0 0.00 0.00 0.00 68 1020.8
20260509102205 3 302 0.0 3.2 0.00 0.00 0.00 68 1020.9
20260509102003 3 302 0.0 3.2 0.00 0.00 0.00 67 1019.4
20260509101518 3 302 0.0 3.2 0.00 0.00 0.00 67 1019.4
20260509101435 4 302 0.0 3.2 0.00 0.00 0.00 67 1020.9
20260509101007 3 302 0.0 3.2 0.00 0.00 0.00 67 1019.3
20260509100929 4 302 0.0 3.2 0.00 0.00 0.00 67 1020.8
20260509100506 3 302 0.0 4.8 0.00 0.00 0.00 67 1019.3
20260509100427 4 302 1.6 4.8 0.00 0.00 0.00 67 1020.7
20260509100144 4 302 1.6 4.8 0.00 0.00 0.00 66 1020.7
20260509100025 3 302 1.6 4.8 0.00 0.00 0.00 66 1019.2
20260509095503 3 303 0.0 6.4 0.00 0.00 0.00 67 1019.3
20260509095427 4 303 0.0 6.4 0.00 0.00 0.00 67 1020.7
20260509095006 3 303 0.0 6.4 0.00 0.00 0.00 66 1019.3
20260509094925 4 303 1.6 6.4 0.00 0.00 0.00 67 1020.7
20260509094521 4 254 0.0 3.2 0.00 0.00 0.00 66 1019.2
20260509094423 4 254 0.0 3.2 0.00 0.00 0.00 66 1020.7
20260509094005 4 254 0.0 3.2 0.00 0.00 0.00 65 1019.2
20260509093506 4 254 0.0 3.2 0.00 0.00 0.00 65 1019.3
20260509093420 4 254 0.0 3.2 0.00 0.00 0.00 65 1020.7
20260509093023 4 252 0.0 3.2 0.00 0.00 0.00 65 1019.2
20260509092920 5 265 0.0 3.2 0.00 0.00 0.00 66 1020.7
20260509092648 5 265 0.0 3.2 0.00 0.00 0.00 65 1020.7
20260509092505 4 265 0.0 3.2 0.00 0.00 0.00 65 1019.1
20260509092143 5 265 1.6 4.8 0.00 0.00 0.00 65 1020.6
20260509092005 4 265 0.0 4.8 0.00 0.00 0.00 65 1019.1
20260509091524 4 265 0.0 4.8 0.00 0.00 0.00 64 1019.1
20260509091420 5 265 0.0 4.8 0.00 0.00 0.00 64 1020.6
20260509091009 4 296 0.0 0.0 0.00 0.00 0.00 64 1019.1
20260509090919 5 296 0.0 0.0 0.00 0.00 0.00 64 1020.6
20260509090505 4 296 0.0 0.0 0.00 0.00 0.00 65 1019.1
20260509090419 4 296 0.0 0.0 0.00 0.00 0.00 65 1020.6
20260509090024 4 296 0.0 0.0 0.00 0.00 0.00 65 1019.0
20260509085915 5 248 0.0 0.0 0.00 0.00 0.00 65 1020.7
20260509085506 5 248 0.0 0.0 0.00 0.00 0.00 64 1019.0
20260509085415 5 248 0.0 0.0 0.00 0.00 0.00 64 1020.5
20260509085004 5 248 0.0 0.0 0.00 0.00 0.00 63 1019.0
20260509084914 5 248 0.0 0.0 0.00 0.00 0.00 63 1020.5
20260509084639 5 248 0.0 0.0 0.00 0.00 0.00 63 1020.6
20260509084529 5 248 0.0 0.0 0.00 0.00 0.00 63 1019.0
20260509084139 5 248 0.0 0.0 0.00 0.00 0.00 63 1020.7
20260509084007 5 248 0.0 0.0 0.00 0.00 0.00 62 1019.0
20260509083635 5 246 0.0 0.0 0.00 0.00 0.00 62 1020.7
20260509083505 5 246 0.0 0.0 0.00 0.00 0.00 62 1019.1
20260509083019 5 246 0.0 0.0 0.00 0.00 0.00 61 1019.1
20260509082915 5 246 0.0 0.0 0.00 0.00 0.00 63 1020.6
20260509082634 5 219 0.0 0.0 0.00 0.00 0.00 62 1020.7
20260509082509 5 219 0.0 0.0 0.00 0.00 0.00 61 1019.0
20260509082005 5 219 0.0 0.0 0.00 0.00 0.00 61 1019.0
20260509081915 5 219 0.0 0.0 0.00 0.00 0.00 62 1020.6
20260509081536 5 219 0.0 0.0 0.00 0.00 0.00 62 1018.9
20260509081415 5 219 0.0 0.0 0.00 0.00 0.00 61 1020.5
20260509081006 5 219 0.0 4.8 0.00 0.00 0.00 60 1018.9
20260509080916 6 219 1.6 4.8 0.00 0.00 0.00 61 1020.4
20260509080509 6 219 0.0 4.8 0.00 0.00 0.00 61 1018.8
20260509080415 6 219 1.6 4.8 0.00 0.00 0.00 61 1020.3
20260509080134 6 139 1.6 6.4 0.00 0.00 0.00 61 1020.1
20260509080024 5 139 0.0 6.4 0.00 0.00 0.00 61 1018.7
20260509075510 5 139 0.0 6.4 0.00 0.00 0.00 61 1018.7
20260509075413 6 139 1.6 6.4 0.00 0.00 0.00 62 1020.1
20260509075009 5 130 0.0 6.4 0.00 0.00 0.00 61 1018.7
20260509074913 5 130 1.6 8.0 0.00 0.00 0.00 61 1020.1
20260509074530 5 288 0.0 8.0 0.00 0.00 0.00 62 1018.8
20260509074412 5 288 1.6 8.0 0.00 0.00 0.00 62 1020.0
20260509074009 4 220 3.2 8.0 0.00 0.00 0.00 64 1018.8
20260509073913 4 286 0.0 6.4 0.00 0.00 0.00 64 1020.1
20260509073506 4 303 0.0 0.0 0.00 0.00 0.00 64 1018.7
20260509073412 4 303 0.0 0.0 0.00 0.00 0.00 64 1020.0
20260509073024 4 303 0.0 0.0 0.00 0.00 0.00 63 1018.7
20260509072906 5 303 0.0 0.0 0.00 0.00 0.00 64 1020.0
20260509072508 4 303 0.0 4.8 0.00 0.00 0.00 63 1018.6
20260509072400 5 303 0.0 4.8 0.00 0.00 0.00 63 1020.0
20260509072013 4 303 0.0 4.8 0.00 0.00 0.00 63 1018.7
20260509071854 5 303 0.0 4.8 0.00 0.00 0.00 63 1019.9
20260509071520 5 303 0.0 1.6 0.00 0.00 0.00 62 1018.5
20260509071349 5 303 0.0 1.6 0.00 0.00 0.00 63 1019.9
20260509071005 5 303 0.0 4.8 0.00 0.00 0.00 62 1018.5
20260509070843 5 303 0.0 4.8 0.00 0.00 0.00 62 1019.7
20260509070509 5 303 0.0 4.8 0.00 0.00 0.00 61 1018.4
20260509070336 5 303 1.6 4.8 0.00 0.00 0.00 61 1019.7
20260509070023 5 303 0.0 3.2 0.00 0.00 0.00 61 1018.4
20260509065831 5 303 0.0 3.2 0.00 0.00 0.00 60 1019.7
20260509065510 5 303 0.0 6.4 0.00 0.00 0.00 60 1018.4
20260509065325 5 303 1.6 6.4 0.00 0.00 0.00 61 1019.7
20260509065042 6 303 1.6 6.4 0.00 0.00 0.00 60 1019.6
20260509065009 5 303 0.0 6.4 0.00 0.00 0.00 62 1018.4
20260509064503 5 290 0.0 6.4 0.00 0.00 0.00 60 1018.4
20260509064313 6 290 0.0 6.4 0.00 0.00 0.00 58 1019.7
20260509064003 5 300 0.0 0.0 0.00 0.00 0.00 59 1018.4
20260509063807 5 302 0.0 0.0 0.00 0.00 0.00 60 1019.6
20260509063503 5 302 0.0 0.0 0.00 0.00 0.00 61 1018.3
20260509063302 5 302 0.0 0.0 0.00 0.00 0.00 60 1019.6
20260509063010 5 302 0.0 0.0 0.00 0.00 0.00 60 1018.3
20260509062755 5 302 0.0 0.0 0.00 0.00 0.00 60 1019.6
20260509062505 5 302 0.0 0.0 0.00 0.00 0.00 60 1018.3
20260509062249 5 302 0.0 4.8 0.00 0.00 0.00 60 1019.6
20260509062003 5 302 0.0 6.4 0.00 0.00 0.00 59 1018.3
20260509061507 5 302 0.0 6.4 0.00 0.00 0.00 60 1018.3
20260509061237 6 275 0.0 4.8 0.00 0.00 0.00 59 1019.6
20260509061002 6 275 0.0 4.8 0.00 0.00 0.00 59 1018.3
20260509060731 6 275 0.0 4.8 0.00 0.00 0.00 59 1019.6
20260509060502 6 275 0.0 4.8 0.00 0.00 0.00 59 1018.2
20260509060445 6 275 0.0 4.8 0.00 0.00 0.00 60 1019.6
20260509060004 6 275 0.0 4.8 0.00 0.00 0.00 58 1018.2
20260509055719 6 215 0.0 1.6 0.00 0.00 0.00 58 1019.6
20260509055503 6 215 0.0 1.6 0.00 0.00 0.00 57 1018.1
20260509055213 7 215 0.0 1.6 0.00 0.00 0.00 58 1019.5
20260509055002 6 215 0.0 0.0 0.00 0.00 0.00 56 1018.1
20260509054707 7 215 0.0 3.2 0.00 0.00 0.00 57 1019.6
20260509054502 7 215 0.0 3.2 0.00 0.00 0.00 56 1018.1
20260509054420 7 215 0.0 3.2 0.00 0.00 0.00 56 1019.6
20260509054003 7 215 0.0 3.2 0.00 0.00 0.00 55 1018.1
20260509053655 8 215 0.0 3.2 0.00 0.00 0.00 55 1019.5
20260509053503 7 215 0.0 3.2 0.00 0.00 0.00 54 1018.0
20260509053149 8 215 0.0 4.8 0.00 0.00 0.00 55 1019.5
20260509053003 8 215 0.0 4.8 0.00 0.00 0.00 54 1018.0
20260509052643 8 215 1.6 4.8 0.00 0.00 0.00 52 1019.3
20260509052504 8 215 0.0 6.4 0.00 0.00 0.00 51 1017.9
20260509052138 8 240 1.6 6.4 0.00 0.00 0.00 52 1019.3
20260509052006 8 240 0.0 6.4 0.00 0.00 0.00 51 1017.8
20260509051853 8 253 1.6 6.4 0.00 0.00 0.00 51 1019.3
20260509051504 8 253 1.6 6.4 0.00 0.00 0.00 50 1017.7
20260509051125 8 313 1.6 6.4 0.00 0.00 0.00 51 1019.2
20260509051007 8 314 3.2 6.4 0.00 0.00 0.00 50 1017.7
20260509050619 8 284 0.0 4.8 0.00 0.00 0.00 51 1019.2
20260509050506 8 284 0.0 4.8 0.00 0.00 0.00 49 1017.6
20260509050113 9 287 0.0 1.6 0.00 0.00 0.00 52 1019.2
20260509050020 8 287 0.0 1.6 0.00 0.00 0.00 52 1017.6
20260509045608 9 286 0.0 1.6 0.00 0.00 0.00 51 1019.1
20260509045502 8 286 0.0 1.6 0.00 0.00 0.00 51 1017.6
20260509045101 9 286 0.0 3.2 0.00 0.00 0.00 52 1018.9
20260509045003 9 286 0.0 3.2 0.00 0.00 0.00 51 1017.4
20260509044555 9 286 1.6 4.8 0.00 0.00 0.00 49 1018.7
20260509044504 9 286 0.0 4.8 0.00 0.00 0.00 48 1017.3
20260509044050 10 312 0.0 4.8 0.00 0.00 0.00 48 1018.7
20260509044003 9 312 1.6 4.8 0.00 0.00 0.00 47 1017.4
20260509043543 10 223 0.0 3.2 0.00 0.00 0.00 49 1018.8
20260509043505 10 223 0.0 3.2 0.00 0.00 0.00 48 1017.4
20260509043037 10 223 0.0 3.2 0.00 0.00 0.00 48 1018.7
20260509043007 10 223 0.0 3.2 0.00 0.00 0.00 48 1017.3
20260509042531 10 223 1.6 3.2 0.00 0.00 0.00 48 1018.7
20260509042503 10 223 1.6 3.2 0.00 0.00 0.00 48 1017.2
20260509042025 10 223 1.6 6.4 0.00 0.00 0.00 48 1018.5
20260509042003 10 223 1.6 6.4 0.00 0.00 0.00 47 1017.1
20260509041519 10 223 1.6 6.4 0.00 0.00 0.00 49 1018.5
20260509041507 10 223 3.2 6.4 0.00 0.00 0.00 48 1017.1
20260509041237 10 235 1.6 6.4 0.00 0.00 0.00 49 1018.4
20260509041004 10 235 1.6 6.4 0.00 0.00 0.00 48 1017.1
20260509040507 10 235 0.0 6.4 0.00 0.00 0.00 48 1018.3
20260509040502 10 235 1.6 6.4 0.00 0.00 0.00 48 1017.0
20260509040003 10 180 0.0 0.0 0.00 0.00 0.00 48 1018.3
20260509035507 10 180 0.0 0.0 0.00 0.00 0.00 49 1016.9
20260509035455 10 180 0.0 0.0 0.00 0.00 0.00 49 1018.3
20260509035209 11 180 0.0 3.2 0.00 0.00 0.00 48 1018.2
20260509035004 10 180 0.0 3.2 0.00 0.00 0.00 47 1016.8
20260509034504 10 180 0.0 3.2 0.00 0.00 0.00 48 1016.7
20260509034444 11 180 0.0 3.2 0.00 0.00 0.00 49 1018.1
20260509034003 10 180 0.0 3.2 0.00 0.00 0.00 48 1016.6
20260509033937 11 180 0.0 3.2 0.00 0.00 0.00 50 1018.1
20260509033503 10 180 0.0 4.8 0.00 0.00 0.00 49 1016.6
20260509033431 11 180 1.6 4.8 0.00 0.00 0.00 49 1018.1
20260509033005 11 232 0.0 4.8 0.00 0.00 0.00 50 1016.5
20260509032925 11 232 0.0 4.8 0.00 0.00 0.00 50 1018.0
20260509032504 11 120 0.0 3.2 0.00 0.00 0.00 53 1016.4
20260509032419 11 120 0.0 4.8 0.00 0.00 0.00 53 1017.9
20260509032003 11 120 0.0 4.8 0.00 0.00 0.00 54 1016.3
20260509031913 11 120 1.6 4.8 0.00 0.00 0.00 55 1017.7
20260509031506 11 117 0.0 6.4 0.00 0.00 0.00 54 1016.1
20260509031413 12 119 1.6 6.4 0.00 0.00 0.00 54 1017.6
20260509031003 12 120 1.6 6.4 0.00 0.00 0.00 53 1016.1
20260509030911 12 117 1.6 6.4 0.00 0.00 0.00 53 1017.5
20260509030503 12 113 0.0 4.8 0.00 0.00 0.00 51 1016.0
20260509030411 12 108 1.6 4.8 0.00 0.00 0.00 52 1017.5
20260509030008 12 112 0.0 4.8 0.00 0.00 0.00 51 1016.0
20260509025912 12 112 1.6 4.8 0.00 0.00 0.00 51 1017.5
20260509025504 12 113 1.6 4.8 0.00 0.00 0.00 49 1015.9
20260509025411 12 84 0.0 3.2 0.00 0.00 0.00 49 1017.4
20260509025006 12 257 0.0 1.6 0.00 0.00 0.00 47 1015.8
20260509024911 13 256 0.0 1.6 0.00 0.00 0.00 47 1017.3
20260509024509 12 256 0.0 3.2 0.00 0.00 0.00 46 1015.8
20260509024410 13 256 1.6 4.8 0.00 0.00 0.00 47 1017.2
20260509024010 13 257 0.0 6.4 0.00 0.00 0.00 45 1015.7
20260509023910 13 257 3.2 9.7 0.00 0.00 0.00 45 1017.1
20260509023511 13 257 3.2 9.7 0.00 0.00 0.00 44 1015.6
20260509023409 13 257 1.6 9.7 0.00 0.00 0.00 44 1017.1
20260509023013 13 254 3.2 9.7 0.00 0.00 0.00 42 1015.7
20260509022907 13 296 3.2 6.4 0.00 0.00 0.00 42 1017.1
20260509022504 13 275 0.0 9.7 0.00 0.00 0.00 40 1015.5
20260509022407 13 275 3.2 9.7 0.00 0.00 0.00 39 1016.9
20260509022007 13 317 3.2 9.7 0.00 0.00 0.00 35 1015.4
20260509021906 13 293 3.2 9.7 0.00 0.00 0.00 35 1016.9
20260509021506 13 313 3.2 6.4 0.00 0.00 0.00 33 1015.5
20260509021407 14 255 1.6 6.4 0.00 0.00 0.00 33 1016.8
20260509021007 14 244 0.0 8.0 0.00 0.00 0.00 32 1015.4
20260509020903 14 244 3.2 8.0 0.00 0.00 0.00 32 1016.8
20260509020507 14 284 1.6 8.0 0.00 0.00 0.00 31 1015.4
20260509020403 15 287 3.2 8.0 0.00 0.00 0.00 31 1016.7
20260509020130 15 241 1.6 6.4 0.00 0.00 0.00 31 1016.6
20260509020006 15 269 1.6 6.4 0.00 0.00 0.00 30 1015.3
20260509015621 15 251 1.6 4.8 0.00 0.00 0.00 30 1016.6
20260509015504 15 247 0.0 4.8 0.00 0.00 0.00 29 1015.2
20260509015004 15 251 0.0 8.0 0.00 0.00 0.00 29 1015.0
20260509014903 15 251 3.2 8.0 0.00 0.00 0.00 29 1016.6
20260509014512 15 248 1.6 8.0 0.00 0.00 0.00 28 1015.2
20260509014403 15 248 3.2 8.0 0.00 0.00 0.00 29 1016.6
20260509014006 15 236 3.2 8.0 0.00 0.00 0.00 28 1015.2
20260509013503 15 241 1.6 8.0 0.00 0.00 0.00 28 1015.2
20260509013403 15 234 4.8 8.0 0.00 0.00 0.00 29 1016.7
20260509013033 15 279 3.2 8.0 0.00 0.00 0.00 28 1015.2
20260509012904 15 282 4.8 8.0 0.00 0.00 0.00 29 1016.6
20260509012509 15 283 3.2 8.0 0.00 0.00 0.00 29 1015.2
20260509012400 15 277 3.2 8.0 0.00 0.00 0.00 29 1016.6
20260509012004 15 238 1.6 8.0 0.00 0.00 0.00 30 1015.2
20260509011859 16 241 3.2 8.0 0.00 0.00 0.00 29 1016.7
20260509011512 15 270 0.0 8.0 0.00 0.00 0.00 31 1015.2
20260509011359 15 270 1.6 8.0 0.00 0.00 0.00 31 1016.7
20260509011006 15 294 3.2 8.0 0.00 0.00 0.00 31 1015.2
20260509010859 15 283 1.6 6.4 0.00 0.00 0.00 31 1016.6
20260509010510 15 246 0.0 11.3 0.00 0.00 0.00 34 1015.0
20260509010359 15 247 3.2 11.3 0.00 0.00 0.00 31 1016.7
20260509010008 15 247 3.2 12.9 0.00 0.00 0.00 30 1015.2
20260509005859 15 288 4.8 12.9 0.00 0.00 0.00 30 1016.7
20260509005506 15 310 4.8 12.9 0.00 0.00 0.00 30 1015.1
20260509005400 15 327 3.2 12.9 0.00 0.00 0.00 30 1016.7
20260509005004 15 235 1.6 11.3 0.00 0.00 0.00 30 1015.1
20260509004859 15 219 4.8 11.3 0.00 0.00 0.00 32 1016.7
20260509004508 15 193 3.2 11.3 0.00 0.00 0.00 31 1015.2
20260509004359 15 222 4.8 11.3 0.00 0.00 0.00 31 1016.8
20260509004004 15 237 4.8 11.3 0.00 0.00 0.00 32 1015.2
20260509003857 15 286 3.2 9.7 0.00 0.00 0.00 34 1016.8
20260509003508 15 296 1.6 12.9 0.00 0.00 0.00 35 1015.2
20260509003358 15 301 4.8 12.9 0.00 0.00 0.00 34 1016.9
20260509003017 15 335 4.8 12.9 0.00 0.00 0.00 34 1015.3
20260509002857 15 319 4.8 12.9 0.00 0.00 0.00 35 1016.9
20260509002503 15 240 4.8 14.5 0.00 0.00 0.00 36 1015.4
20260509002357 15 240 4.8 14.5 0.00 0.00 0.00 38 1016.9
20260509002007 15 232 3.2 14.5 0.00 0.00 0.00 38 1015.2
20260509001856 15 249 6.4 14.5 0.00 0.00 0.00 38 1016.9
20260509001518 15 240 4.8 14.5 0.00 0.00 0.00 38 1015.3
20260509001355 15 276 6.4 14.5 0.00 0.00 0.00 39 1016.9
20260509001007 15 236 6.4 14.5 0.00 0.00 0.00 36 1015.3
20260509000855 15 311 4.8 14.5 0.00 0.00 0.00 36 1016.9
20260509000504 15 255 3.2 12.9 0.00 0.00 0.00 35 1015.3
20260509000355 15 290 4.8 12.9 0.00 0.00 0.00 35 1016.8
20260509000018 15 231 3.2 11.3 0.00 0.00 0.00 35 1015.3
20260508235855 15 284 4.8 11.3 0.00 0.00 0.00 36 1016.9
20260508235508 15 261 3.2 11.3 0.00 0.00 0.00 35 1015.3
20260508235354 15 298 3.2 11.3 0.00 0.00 0.00 36 1016.8
20260508235006 15 314 4.8 16.1 0.00 0.00 0.00 34 1015.3
20260508234516 15 283 3.2 19.3 0.00 0.00 0.00 36 1015.3
20260508234353 15 281 4.8 19.3 0.00 0.00 0.00 36 1016.8
20260508234008 15 286 4.8 19.3 0.00 0.00 0.00 36 1015.2
20260508233852 15 335 4.8 19.3 0.00 0.00 0.00 39 1016.9
20260508233504 15 286 3.2 12.9 0.00 0.00 0.00 38 1015.3
20260508233353 15 238 4.8 12.9 0.00 0.00 0.00 40 1016.8
20260508233013 15 163 6.4 12.9 0.00 0.00 0.00 40 1015.3
20260508232851 15 240 3.2 12.9 0.00 0.00 0.00 41 1016.9
20260508232504 15 275 3.2 8.0 0.00 0.00 0.00 41 1015.3
20260508232350 15 298 1.6 8.0 0.00 0.00 0.00 42 1016.8
20260508232007 14 311 1.6 11.3 0.00 0.00 0.00 41 1015.3
20260508231844 15 297 4.8 11.3 0.00 0.00 0.00 43 1016.9
20260508231510 14 247 1.6 14.5 0.00 0.00 0.00 41 1015.3
20260508231338 15 247 6.4 14.5 0.00 0.00 0.00 41 1016.9
20260508231057 15 278 4.8 12.9 0.00 0.00 0.00 41 1017.1
20260508231004 14 281 6.4 14.5 0.00 0.00 0.00 41 1015.3
20260508230507 14 297 4.8 12.9 0.00 0.00 0.00 42 1015.3
20260508230326 14 263 3.2 12.9 0.00 0.00 0.00 46 1016.9
20260508230045 14 159 1.6 12.9 0.00 0.00 0.00 44 1015.3
20260508225820 14 190 4.8 12.9 0.00 0.00 0.00 44 1016.9
20260508225504 14 323 3.2 9.7 0.00 0.00 0.00 42 1015.3
20260508225315 14 289 4.8 9.7 0.00 0.00 0.00 43 1016.9
20260508225009 14 240 3.2 9.7 0.00 0.00 0.00 44 1015.5
20260508224809 15 259 3.2 9.7 0.00 0.00 0.00 44 1016.9
20260508224551 15 313 3.2 9.7 0.00 0.00 0.00 42 1015.3
20260508224302 15 281 3.2 9.7 0.00 0.00 0.00 43 1016.8
20260508224008 15 252 0.0 9.7 0.00 0.00 0.00 42 1015.3
20260508223756 15 314 3.2 9.7 0.00 0.00 0.00 42 1016.9
20260508223511 15 242 3.2 9.7 0.00 0.00 0.00 44 1015.4
20260508223250 15 250 1.6 9.7 0.00 0.00 0.00 44 1016.8
20260508223030 15 76 1.6 9.7 0.00 0.00 0.00 44 1015.4
20260508222744 15 173 3.2 9.7 0.00 0.00 0.00 45 1016.8
20260508222508 15 111 1.6 9.7 0.00 0.00 0.00 45 1015.4
20260508222238 15 232 3.2 9.7 0.00 0.00 0.00 44 1016.8
20260508222010 15 108 4.8 9.7 0.00 0.00 0.00 45 1015.3
20260508221732 15 236 3.2 9.7 0.00 0.00 0.00 45 1016.8
20260508221513 15 95 3.2 9.7 0.00 0.00 0.00 46 1015.3
20260508221226 15 188 3.2 12.9 0.00 0.00 0.00 46 1016.8
20260508221004 15 223 1.6 8.0 0.00 0.00 0.00 45 1015.3
20260508220720 15 212 3.2 12.9 0.00 0.00 0.00 46 1016.8
20260508220504 15 234 3.2 12.9 0.00 0.00 0.00 45 1015.3
20260508220214 15 275 3.2 12.9 0.00 0.00 0.00 46 1016.7
20260508220016 15 180 3.2 16.1 0.00 0.00 0.00 45 1015.4
20260508215708 15 237 4.8 16.1 0.00 0.00 0.00 44 1016.7
20260508215505 15 133 4.8 16.1 0.00 0.00 0.00 45 1015.3
20260508215202 15 161 4.8 16.1 0.00 0.00 0.00 44 1016.6
20260508215007 15 227 1.6 12.9 0.00 0.00 0.00 44 1015.2
20260508214917 15 119 4.8 12.9 0.00 0.00 0.00 45 1016.8
20260508214516 15 115 3.2 12.9 0.00 0.00 0.00 44 1015.2
20260508214150 15 178 4.8 12.9 0.00 0.00 0.00 43 1016.7
20260508214007 15 120 4.8 19.3 0.00 0.00 0.00 44 1015.2
20260508213644 15 118 3.2 19.3 0.00 0.00 0.00 44 1016.7
20260508213510 15 284 1.6 19.3 0.00 0.00 0.00 44 1015.2
20260508213138 15 122 3.2 19.3 0.00 0.00 0.00 44 1016.6
20260508213003 15 241 1.6 11.3 0.00 0.00 0.00 43 1015.2
20260508212633 15 275 3.2 11.3 0.00 0.00 0.00 42 1016.7
20260508212502 15 237 3.2 11.3 0.00 0.00 0.00 41 1015.2
20260508212126 15 238 4.8 16.1 0.00 0.00 0.00 40 1016.6
20260508212004 15 218 4.8 16.1 0.00 0.00 0.00 39 1015.2
20260508211620 16 229 4.8 16.1 0.00 0.00 0.00 40 1016.5
20260508211509 15 195 6.4 16.1 0.00 0.00 0.00 42 1015.1
20260508211114 16 104 3.2 11.3 0.00 0.00 0.00 41 1016.5
20260508211001 15 170 1.6 11.3 0.00 0.00 0.00 39 1015.1
20260508210608 16 103 3.2 11.3 0.00 0.00 0.00 42 1016.4
20260508210504 15 211 1.6 8.0 0.00 0.00 0.00 40 1015.0
20260508210004 15 125 1.6 8.0 0.00 0.00 0.00 40 1014.9
20260508205556 15 167 1.6 8.0 0.00 0.00 0.00 40 1016.3
20260508205501 15 259 1.6 8.0 0.00 0.00 0.00 40 1014.9
20260508205050 16 241 3.2 9.7 0.00 0.00 0.00 39 1016.3
20260508205002 16 17 3.2 14.5 0.00 0.00 0.00 39 1014.9
20260508204543 16 138 4.8 16.1 0.00 0.00 0.00 40 1016.5
20260508204510 16 198 0.0 16.1 0.00 0.00 0.00 40 1015.0
20260508204306 16 143 6.4 16.1 0.00 0.00 0.00 43 1016.4
20260508204002 16 123 8.0 16.1 0.00 0.00 0.00 43 1015.0
20260508203533 16 317 6.4 17.7 0.00 0.00 0.00 46 1016.5
20260508203502 15 240 3.2 17.7 0.00 0.00 0.00 45 1015.0
20260508203027 15 104 9.7 19.3 0.00 0.00 0.00 46 1016.5
20260508203004 15 122 3.2 22.5 0.00 0.00 0.00 46 1015.0
20260508202520 15 114 9.7 22.5 0.00 0.00 0.00 46 1016.5
20260508202504 15 92 8.0 22.5 0.00 0.00 0.00 46 1015.0
20260508202014 15 72 6.4 17.7 0.00 0.00 0.00 46 1016.6
20260508202004 15 86 6.4 17.7 0.00 0.00 0.00 46 1015.0
20260508201508 14 113 6.4 19.3 0.00 0.00 0.00 47 1016.5
20260508201503 14 123 3.2 19.3 0.00 0.00 0.00 47 1015.2
20260508201004 14 242 1.6 19.3 0.00 0.00 0.00 45 1015.2
20260508200504 13 96 4.8 12.9 0.00 0.00 0.00 48 1015.2
20260508200456 14 98 3.2 12.9 0.00 0.00 0.00 48 1016.7
20260508200213 14 225 3.2 12.9 0.00 0.00 0.00 46 1016.8
20260508200015 14 227 1.6 12.9 0.00 0.00 0.00 45 1015.4
20260508195502 14 93 1.6 16.1 0.00 0.00 0.00 46 1015.4
20260508195443 14 250 6.4 16.1 0.00 0.00 0.00 46 1016.8
20260508195002 14 109 9.7 16.1 0.00 0.00 0.00 47 1015.3
20260508194938 15 115 8.0 16.1 0.00 0.00 0.00 48 1016.7
20260508194658 15 113 6.4 14.5 0.00 0.00 0.00 46 1016.7
20260508194502 15 98 8.0 14.5 0.00 0.00 0.00 45 1015.2
20260508194147 15 111 4.8 12.9 0.00 0.00 0.00 47 1016.8
20260508194002 15 109 6.4 12.9 0.00 0.00 0.00 46 1015.3
20260508193503 15 105 3.2 12.9 0.00 0.00 0.00 45 1015.3
20260508193420 15 111 3.2 12.9 0.00 0.00 0.00 46 1016.7
20260508193003 15 110 3.2 12.9 0.00 0.00 0.00 46 1015.2
20260508192915 15 103 4.8 12.9 0.00 0.00 0.00 46 1016.6
20260508192503 15 111 1.6 19.3 0.00 0.00 0.00 46 1015.1
20260508192414 15 111 8.0 19.3 0.00 0.00 0.00 47 1016.5
20260508192003 15 139 9.7 19.3 0.00 0.00 0.00 46 1015.1
20260508191914 15 115 8.0 19.3 0.00 0.00 0.00 49 1016.5
20260508191507 15 112 6.4 20.9 0.00 0.00 0.00 47 1014.9
20260508191414 15 108 6.4 20.9 0.00 0.00 0.00 48 1016.5
20260508191004 15 137 3.2 20.9 0.00 0.00 0.00 46 1014.9
20260508190914 15 198 8.0 20.9 0.00 0.00 0.00 49 1016.4
20260508190502 15 109 11.3 20.9 0.00 0.00 0.00 49 1015.0
20260508190414 15 80 4.8 19.3 0.00 0.00 0.00 50 1016.4